Weather History for Rochelle, IL

Change the Weather History Date:

Wednesday, June 19, 2013

  Actual Average (KRFD) Record (KRFD)
Temperature  
Mean Temperature 64 °F 71 °F  
Max Temperature 80 °F 82 °F 99 °F (1953)
Min Temperature 50 °F 60 °F 46 °F (1916)
Degree Days  
Heating Degree Days 0 1  
Month to date heating degree days 28  
Since 1 June heating degree days 28  
Since 1 July heating degree days 6566  
Cooling Degree Days 0 7  
Month to date cooling degree days 90  
Year to date cooling degree days 145  
Since 1 June cooling degree days 90  
Growing Degree Days 14 (Base 50)    
Moisture  
Dew Point 50 °F    
Average Humidity 58    
Maximum Humidity 82    
Minimum Humidity 36    
Precipitation  
Precipitation 0.00 in 0.15 in 4.20 in (2009)
Month to date precipitation 3.05  
Year to date precipitation 15.52  
Snow  
Snow 0.00 in 0.00 in 0.00 in ()
Month to date snowfall 0.0  
Since 1 June snowfall 0.0  
Since 1 July snowfall 36.7  
Snow Depth -    
Sea Level Pressure  
Sea Level Pressure 30.10 in    
Wind  
Wind Speed 2 mph (East)    
Max Wind Speed 10 mph    
Max Gust Speed -    
Visibility 10 miles    
Events      
T = Trace of Precipitation, MM = Missing Value Source: NWS Daily Summary

Daily Weather History Graph

Daily Weather History Graph

Search for Another Location

Airport:

Trip Planner

Search our weather history database for the weather conditions in past years. The results will help you decide how hot, cold, wet, or windy it might be!

Date:

Astronomy

Jun. 19, 2013 Rise Set
Actual Time 5:20 AM CDT 8:34 PM CDT
Civil Twilight 4:46 AM CDT 9:09 PM CDT
Nautical Twilight 4:02 AM CDT 9:53 PM CDT
Astronomical Twilight 3:08 AM CDT 10:46 PM CDT
Moon 4:24 PM CDT (6/19) 2:08 AM CDT (6/19)
Length of Visible Light 16h 22m
Length of Day
15h 13m
Waxing Gibbous, 80% of the Moon is Illuminated
Jun 19
Waxing Gibbous
Jun 23
Full
Jun 29
Last Quarter
Jul 8
New
Jul 15
First Quarter

Hourly Weather History & Observations

Time (CDT) Temp. Dew Point Humidity Pressure Visibility Wind Dir Wind Speed Gust Speed Precip Events Conditions
12:15 AM 55.4 °F 45.9 °F 70% 30.09 in 10.0 mi NE 5.8 mph - N/A   Clear
12:35 AM 54.9 °F 45.9 °F 72% 30.09 in 10.0 mi NE 4.6 mph - N/A   Clear
12:55 AM 54.3 °F 45.7 °F 73% 30.09 in 10.0 mi Calm Calm - N/A   Clear
1:15 AM 53.6 °F 45.5 °F 74% 30.09 in 10.0 mi Calm Calm - N/A   Clear
1:35 AM 53.4 °F 45.3 °F 74% 30.10 in 10.0 mi Calm Calm - N/A   Clear
1:55 AM 53.1 °F 45.0 °F 74% 30.10 in 10.0 mi Calm Calm - N/A   Clear
2:15 AM 52.3 °F 45.7 °F 78% 30.10 in 10.0 mi Calm Calm - N/A   Clear
2:35 AM 52.7 °F 45.7 °F 77% 30.10 in 10.0 mi Calm Calm - N/A   Clear
2:55 AM 52.7 °F 45.5 °F 76% 30.10 in 10.0 mi NE 4.6 mph - N/A   Clear
3:15 AM 52.2 °F 45.5 °F 78% 30.09 in 10.0 mi NE 4.6 mph - N/A   Clear
3:35 AM 51.8 °F 45.3 °F 79% 30.10 in 10.0 mi Calm Calm - N/A   Clear
3:55 AM 51.4 °F 45.1 °F 79% 30.09 in 10.0 mi NE 4.6 mph - N/A   Clear
4:15 AM 51.1 °F 45.0 °F 80% 30.11 in 10.0 mi Calm Calm - N/A   Clear
4:35 AM 50.7 °F 45.1 °F 81% 30.11 in 10.0 mi Calm Calm - N/A   Clear
4:55 AM 50.5 °F 45.1 °F 82% 30.11 in 10.0 mi Calm Calm - N/A   Clear
5:15 AM 50.9 °F 45.3 °F 81% 30.11 in 10.0 mi Calm Calm - N/A   Clear
5:35 AM 50.9 °F 45.5 °F 82% 30.11 in 10.0 mi Calm Calm - N/A   Clear
5:55 AM 51.1 °F 45.7 °F 82% 30.12 in 10.0 mi Calm Calm - N/A   Clear
6:15 AM 52.7 °F 46.6 °F 80% 30.12 in 10.0 mi Calm Calm - N/A   Clear
6:35 AM 54.5 °F 47.3 °F 77% 30.13 in 10.0 mi Calm Calm - N/A   Clear
6:55 AM 56.1 °F 48.0 °F 74% 30.13 in 10.0 mi Calm Calm - N/A   Clear
7:15 AM 59.0 °F 48.6 °F 68% 30.14 in 10.0 mi Calm Calm - N/A   Clear
7:35 AM 61.9 °F 48.7 °F 62% 30.14 in 10.0 mi East 3.5 mph - N/A   Clear
7:55 AM 63.7 °F 48.7 °F 58% 30.13 in 10.0 mi East 6.9 mph - N/A   Clear
8:15 AM 64.8 °F 49.1 °F 57% 30.13 in 10.0 mi East 6.9 mph - N/A   Clear
8:35 AM 66.0 °F 49.8 °F 56% 30.14 in 10.0 mi East 6.9 mph - N/A   Clear
8:55 AM 67.1 °F 51.1 °F 56% 30.14 in 10.0 mi Calm Calm - N/A   Clear
9:15 AM 68.2 °F 52.7 °F 58% 30.14 in 10.0 mi Calm Calm - N/A   Clear
9:35 AM 68.9 °F 54.3 °F 60% 30.14 in 10.0 mi Calm Calm - N/A   Clear
9:55 AM 69.6 °F 54.5 °F 59% 30.14 in 10.0 mi Calm Calm - N/A   Clear
10:15 AM 70.5 °F 54.7 °F 57% 30.14 in 10.0 mi Calm Calm - N/A   Clear
10:35 AM 71.2 °F 54.9 °F 56% 30.14 in 10.0 mi SE 6.9 mph - N/A   Clear
10:55 AM 72.3 °F 55.2 °F 55% 30.13 in 10.0 mi Calm Calm - N/A   Clear
11:15 AM 72.9 °F 55.4 °F 54% 30.13 in 10.0 mi SE 3.5 mph - N/A   Clear
11:35 AM 73.8 °F 55.6 °F 53% 30.13 in 10.0 mi Calm Calm - N/A   Scattered Clouds
11:55 AM 74.3 °F 55.0 °F 51% 30.12 in 10.0 mi Calm Calm - N/A   Scattered Clouds
12:15 PM 74.5 °F 54.7 °F 50% 30.12 in 10.0 mi Calm Calm - N/A   Scattered Clouds
12:35 PM 75.4 °F 54.9 °F 49% 30.12 in 10.0 mi Calm Calm - N/A   Scattered Clouds
12:55 PM 76.5 °F 54.5 °F 46% 30.11 in 10.0 mi Calm Calm - N/A   Scattered Clouds
1:15 PM 76.5 °F 53.2 °F 44% 30.11 in 10.0 mi SE 3.5 mph - N/A   Clear
1:35 PM 75.9 °F 53.8 °F 46% 30.10 in 10.0 mi SSE 3.5 mph - N/A   Scattered Clouds
1:55 PM 77.0 °F 51.8 °F 41% 30.10 in 10.0 mi Calm Calm - N/A   Scattered Clouds
2:15 PM 79.0 °F 51.8 °F 39% 30.10 in 10.0 mi Calm Calm - N/A   Clear
2:35 PM 79.0 °F 52.5 °F 40% 30.09 in 10.0 mi SSE 3.5 mph - N/A   Mostly Cloudy
2:55 PM 78.4 °F 52.0 °F 40% 30.09 in 10.0 mi Calm Calm - N/A   Scattered Clouds
3:15 PM 79.5 °F 53.4 °F 40% 30.09 in 10.0 mi ESE 3.5 mph - N/A   Scattered Clouds
3:35 PM 79.3 °F 52.5 °F 39% 30.08 in 10.0 mi Calm Calm - N/A   Scattered Clouds
3:55 PM 79.9 °F 50.7 °F 36% 30.08 in 10.0 mi Calm Calm - N/A   Scattered Clouds
4:15 PM 78.3 °F 50.4 °F 38% 30.08 in 10.0 mi Calm Calm - N/A   Scattered Clouds
4:35 PM 78.3 °F 51.3 °F 39% 30.08 in 10.0 mi Calm Calm - N/A   Clear
4:55 PM 79.2 °F 50.7 °F 37% 30.07 in 10.0 mi Calm Calm - N/A   Scattered Clouds
5:15 PM 79.5 °F 50.5 °F 36% 30.07 in 10.0 mi Calm Calm - N/A   Scattered Clouds
5:35 PM 79.3 °F 51.4 °F 38% 30.07 in 10.0 mi Calm Calm - N/A   Scattered Clouds
5:55 PM 79.2 °F 51.4 °F 38% 30.07 in 10.0 mi Calm Calm - N/A   Clear
6:15 PM 79.0 °F 52.0 °F 39% 30.07 in 10.0 mi Calm Calm - N/A   Clear
6:35 PM 78.4 °F 52.5 °F 40% 30.07 in 10.0 mi Calm Calm - N/A   Clear
6:55 PM 78.1 °F 52.9 °F 41% 30.08 in 10.0 mi Calm Calm - N/A   Clear
7:15 PM 77.7 °F 52.9 °F 42% 30.08 in 10.0 mi Calm Calm - N/A   Clear
7:35 PM 76.5 °F 54.7 °F 47% 30.08 in 10.0 mi Calm Calm - N/A   Clear
7:55 PM 74.7 °F 55.6 °F 51% 30.08 in 10.0 mi Calm Calm - N/A   Clear
8:15 PM 72.7 °F 55.8 °F 55% 30.07 in 10.0 mi Calm Calm - N/A   Clear
8:35 PM 71.2 °F 56.3 °F 59% 30.08 in 10.0 mi Calm Calm - N/A   Clear
8:55 PM 70.5 °F 54.9 °F 58% 30.08 in 10.0 mi East 9.2 mph - N/A   Clear
9:15 PM 70.2 °F 49.1 °F 47% 30.09 in 10.0 mi East 10.4 mph - N/A   Clear
9:35 PM 69.3 °F 48.7 °F 48% 30.09 in 10.0 mi ESE 8.1 mph - N/A   Clear
9:55 PM 68.4 °F 49.3 °F 50% 30.10 in 10.0 mi ESE 4.6 mph - N/A   Clear
10:15 PM 66.9 °F 49.8 °F 54% 30.10 in 10.0 mi Calm Calm - N/A   Clear
10:35 PM 65.7 °F 50.0 °F 57% 30.10 in 10.0 mi Calm Calm - N/A   Clear
10:55 PM 64.6 °F 50.0 °F 59% 30.10 in 10.0 mi Calm Calm - N/A   Clear
11:15 PM 64.6 °F 49.6 °F 58% 30.11 in 10.0 mi Calm Calm - N/A   Clear
11:35 PM 63.3 °F 50.0 °F 62% 30.12 in 10.0 mi Calm Calm - N/A   Clear
11:55 PM 62.6 °F 49.5 °F 62% 30.12 in 10.0 mi Calm Calm - N/A   Clear